Weather History for Coatesville, PA

Change the Weather History Date:

Wednesday, September 3, 2014

  Actual Average (KLNS) Record (KLNS)
Temperature  
Mean Temperature 70 °F -  
Max Temperature 77 °F 82 °F 97 °F (1980)
Min Temperature 64 °F 61 °F 49 °F (1989)
Cooling Degree Days 6    
Growing Degree Days 20 (Base 50)    
Moisture  
Dew Point 63 °F    
Average Humidity 76    
Maximum Humidity 94    
Minimum Humidity 54    
Precipitation  
Precipitation 0.00 in - - ()
Sea Level Pressure  
Sea Level Pressure 30.05 in    
Wind  
Wind Speed 6 mph (NW)    
Max Wind Speed 12 mph    
Max Gust Speed -    
Visibility 10 miles    
Events      
Averages and records for this station are not official NWS values.
T = Trace of Precipitation, MM = Missing Value Source: NWS Daily Summary

Daily Weather History Graph

Daily Weather History Graph

Search for Another Location

Airport:

Trip Planner

Search our weather history database for the weather conditions in past years. The results will help you decide how hot, cold, wet, or windy it might be!

Date:

Astronomy

Sep. 03, 2014 Rise Set
Actual Time 6:33 AM EDT 7:31 PM EDT
Civil Twilight 6:05 AM EDT 7:59 PM EDT
Nautical Twilight 5:32 AM EDT 8:32 PM EDT
Astronomical Twilight 4:58 AM EDT 9:06 PM EDT
Moon 3:11 PM EDT (9/3) 12:25 AM EDT (9/3)
Length of Visible Light 13h 53m
Length of Day
12h 58m
Waxing Gibbous, 63% of the Moon is Illuminated
Sep 3
Waxing Gibbous
Sep 8
Full
Sep 15
Last Quarter
Sep 24
New
Oct 1
First Quarter

Hourly Weather History & Observations

Time (EDT) Temp. Dew Point Humidity Pressure Visibility Wind Dir Wind Speed Gust Speed Precip Events Conditions
12:15 AM 71.6 °F 68.0 °F 88% 29.92 in 10.0 mi West 9.2 mph - N/A   Clear
12:35 AM 71.6 °F 68.0 °F 88% 29.93 in 10.0 mi West 8.1 mph - N/A   Clear
12:55 AM 71.6 °F 68.0 °F 88% 29.94 in 10.0 mi WNW 11.5 mph - N/A   Clear
1:15 AM 71.6 °F 68.0 °F 88% 29.94 in 10.0 mi WNW 9.2 mph - N/A   Clear
1:35 AM 71.6 °F 68.0 °F 88% 29.94 in 10.0 mi NW 10.4 mph - N/A   Clear
1:55 AM 71.6 °F 68.0 °F 88% 29.94 in 10.0 mi NW 8.1 mph - N/A   Partly Cloudy
2:15 AM 71.6 °F 66.2 °F 83% 29.94 in 10.0 mi WNW 6.9 mph - N/A   Partly Cloudy
2:35 AM 71.6 °F 66.2 °F 83% 29.94 in 10.0 mi NW 6.9 mph - N/A   Mostly Cloudy
2:55 AM 71.6 °F 66.2 °F 83% 29.94 in 10.0 mi NW 8.1 mph - N/A   Overcast
3:15 AM 71.6 °F 66.2 °F 83% 29.94 in 10.0 mi NNW 9.2 mph - N/A   Mostly Cloudy
3:35 AM 71.6 °F 66.2 °F 83% 29.94 in 10.0 mi NW 6.9 mph - N/A   Mostly Cloudy
3:55 AM 69.8 °F 66.2 °F 88% 29.95 in 10.0 mi NW 5.8 mph - N/A   Partly Cloudy
4:15 AM 69.8 °F 66.2 °F 88% 29.95 in 10.0 mi NW 4.6 mph - N/A   Clear
4:35 AM 68.0 °F 66.2 °F 94% 29.95 in 10.0 mi NNW 5.8 mph - N/A   Clear
4:55 AM 68.0 °F 66.2 °F 94% 29.95 in 10.0 mi NW 6.9 mph - N/A   Clear
5:15 AM 68.0 °F 66.2 °F 94% 29.96 in 10.0 mi NW 4.6 mph - N/A   Clear
5:35 AM 68.0 °F 64.4 °F 88% 29.97 in 10.0 mi NW 5.8 mph - N/A   Clear
5:55 AM 68.0 °F 64.4 °F 88% 29.98 in 10.0 mi NW 6.9 mph - N/A   Clear
6:15 AM 68.0 °F 64.4 °F 88% 29.98 in 10.0 mi NW 4.6 mph - N/A   Clear
6:35 AM 66.2 °F 64.4 °F 94% 29.99 in 10.0 mi NW 4.6 mph - N/A   Clear
6:55 AM 66.2 °F 64.4 °F 94% 30.01 in 10.0 mi NW 5.8 mph - N/A   Clear
7:15 AM 68.0 °F 64.4 °F 88% 30.01 in 10.0 mi NNW 4.6 mph - N/A   Clear
7:35 AM 68.0 °F 64.4 °F 88% 30.02 in 10.0 mi NNW 8.1 mph - N/A   Clear
7:55 AM 68.0 °F 64.4 °F 88% 30.04 in 10.0 mi NW 4.6 mph - N/A   Clear
8:15 AM 68.0 °F 64.4 °F 88% 30.05 in 10.0 mi NNW 5.8 mph - N/A   Partly Cloudy
8:35 AM 69.8 °F 64.4 °F 83% 30.06 in 10.0 mi NW 4.6 mph - N/A   Scattered Clouds
8:55 AM 69.8 °F 64.4 °F 83% 30.06 in 10.0 mi NW 5.8 mph - N/A   Partly Cloudy
9:15 AM 71.6 °F 64.4 °F 78% 30.07 in 10.0 mi WNW 4.6 mph - N/A   Partly Cloudy
9:35 AM 71.6 °F 64.4 °F 78% 30.08 in 10.0 mi NW 6.9 mph - N/A   Mostly Cloudy
9:55 AM 71.6 °F 64.4 °F 78% 30.08 in 10.0 mi NNW 5.8 mph - N/A   Scattered Clouds
10:15 AM 73.4 °F 64.4 °F 73% 30.09 in 10.0 mi NW 4.6 mph - N/A   Partly Cloudy
10:35 AM 73.4 °F 62.6 °F 69% 30.09 in 10.0 mi NNW 6.9 mph - N/A   Clear
10:55 AM 73.4 °F 62.6 °F 69% 30.10 in 10.0 mi North 8.1 mph - N/A   Clear
11:15 AM 75.2 °F 62.6 °F 65% 30.10 in 10.0 mi North 6.9 mph - N/A   Clear
11:35 AM 75.2 °F 62.6 °F 65% 30.10 in 10.0 mi North 3.5 mph - N/A   Scattered Clouds
11:55 AM 75.2 °F 62.6 °F 65% 30.10 in 10.0 mi North 8.1 mph - N/A   Partly Cloudy
12:15 PM 75.2 °F 62.6 °F 65% 30.10 in 10.0 mi North 4.6 mph - N/A   Clear
12:35 PM 75.2 °F 62.6 °F 65% 30.10 in 10.0 mi WNW 5.8 mph - N/A   Clear
12:55 PM 77.0 °F 62.6 °F 61% 30.09 in 10.0 mi WNW 5.8 mph - N/A   Partly Cloudy
1:15 PM 77.0 °F 60.8 °F 57% 30.09 in 10.0 mi NNE 3.5 mph - N/A   Partly Cloudy
1:35 PM 77.0 °F 60.8 °F 57% 30.09 in 10.0 mi North 4.6 mph - N/A   Clear
1:55 PM 77.0 °F 62.6 °F 61% 30.10 in 10.0 mi WNW 8.1 mph - N/A   Clear
2:15 PM 77.0 °F 62.6 °F 61% 30.09 in 10.0 mi NNW 4.6 mph - N/A   Clear
2:35 PM 77.0 °F 62.6 °F 61% 30.10 in 10.0 mi NNW 6.9 mph - N/A   Clear
2:55 PM 77.0 °F 59.0 °F 54% 30.09 in 10.0 mi North 5.8 mph - N/A   Clear
3:15 PM 77.0 °F 62.6 °F 61% 30.10 in 10.0 mi NNW 5.8 mph - N/A   Clear
3:35 PM 77.0 °F 62.6 °F 61% 30.09 in 10.0 mi WNW 8.1 mph - N/A   Clear
3:55 PM 77.0 °F 60.8 °F 57% 30.10 in 10.0 mi West 3.5 mph - N/A   Clear
4:15 PM 77.0 °F 60.8 °F 57% 30.09 in 10.0 mi WNW 4.6 mph - N/A   Clear
4:35 PM 77.0 °F 62.6 °F 61% 30.09 in 10.0 mi West 4.6 mph - N/A   Clear
4:55 PM 77.0 °F 62.6 °F 61% 30.09 in 10.0 mi NW 6.9 mph - N/A   Clear
5:15 PM 77.0 °F 60.8 °F 57% 30.10 in 10.0 mi WNW 9.2 mph - N/A   Clear
5:35 PM 77.0 °F 59.0 °F 54% 30.10 in 10.0 mi NNW 5.8 mph - N/A   Clear
5:55 PM 77.0 °F 59.0 °F 54% 30.10 in 10.0 mi NNW 5.8 mph - N/A   Clear
6:15 PM 75.2 °F 59.0 °F 57% 30.10 in 10.0 mi NNW 4.6 mph - N/A   Clear
6:35 PM 75.2 °F 60.8 °F 61% 30.11 in 10.0 mi NW 4.6 mph - N/A   Clear
6:55 PM 73.4 °F 62.6 °F 69% 30.11 in 10.0 mi WNW 3.5 mph - N/A   Unknown
7:15 PM 73.4 °F 62.6 °F 69% 30.11 in 10.0 mi Calm Calm - N/A   Unknown
7:55 PM 71.6 °F 59.0 °F 64% 30.12 in 10.0 mi Calm Calm - N/A   Clear
8:15 PM 71.6 °F 60.8 °F 69% 30.12 in 10.0 mi Calm Calm - N/A   Clear
8:35 PM 69.8 °F 60.8 °F 73% 30.13 in 10.0 mi Calm Calm - N/A   Unknown
8:55 PM 68.0 °F 62.6 °F 83% 30.13 in 10.0 mi Calm Calm - N/A   Clear
9:15 PM 69.8 °F 60.8 °F 73% 30.13 in 10.0 mi Calm Calm - N/A   Clear
9:35 PM 66.2 °F 62.6 °F 88% 30.14 in 10.0 mi Calm Calm - N/A   Clear
9:55 PM 66.2 °F 62.6 °F 88% 30.13 in 10.0 mi Calm Calm - N/A   Clear
10:15 PM 66.2 °F 60.8 °F 83% 30.14 in 10.0 mi NW 3.5 mph - N/A   Clear
10:35 PM 64.4 °F 62.6 °F 94% 30.14 in 10.0 mi WNW 3.5 mph - N/A   Clear
10:55 PM 64.4 °F 62.6 °F 94% 30.15 in 10.0 mi NW 3.5 mph - N/A   Clear
11:15 PM 64.4 °F 60.8 °F 88% 30.16 in 10.0 mi Calm Calm - N/A   Clear
11:55 PM 64.4 °F 59.0 °F 83% 30.16 in 10.0 mi West 4.6 mph - N/A   Clear